Location: Allentsteig
(48.6833°N, 15.3167°E)
Time: 08:41:01
(UTC+00:00)

Cosmos 2298 Rocket - Pass Details

Date: 18 January 2021
Orbit: 775 x 784 km, 74.0° (Epoch: 24 February)

Event Time Altitude Azimuth Distance (km) Brightness Sun altitude
Exits shadow 04:52:05 - 344° (NNW) 2,864 6.7 -18.0°
Reaches altitude 10° 04:53:31 10° 350° (N) 2,353 6.3 -17.8°
Maximum altitude 04:58:27 36° 57° (ENE) 1,222 5.4 -17.0°
Drops below altitude 10° 05:03:21 10° 124° (SE) 2,341 7.6 -16.2°
Sets 05:05:55 0° 133° (SE) 3,265 8.4 -15.8°
